Regional Weather Roundup
Issued by NWS

Home | Current Version | Previous Version | Text Only | Print | Product List | Glossary On
Versions: 1 2 3 4 5 6 7 8 9 10 11 12 13 14 15 16 17 18 19 20 21 22 23 24 25 26 27 28 29 30 31 32 33 34 35 36 37 38 39 40 41 42 43 44 45 46 47 48 49 50
000
ASUS43 KDTX 201301
RWRMI
MICHIGAN HOURLY REGIONAL WEATHER ROUNDUP
NATIONAL WEATHER SERVICE DETROIT/PONTIAC MI
900 AM EDT FRI OCT 20 2017

NOTE: "FAIR" INDICATES FEW OR NO CLOUDS BELOW 12,000 FEET WITH NO
SIGNIFICANT WEATHER AND/OR OBSTRUCTION TO VISIBILITY.

MIZ047>049-052>055-059>063-066>070-074>076-081>083-201400-
SOUTHEAST LOWER MICHIGAN

CITY           SKY/WX    TMP DP  RH WIND       PRES   REMARKS
ADRIAN         SUNNY     44  39  82 CALM      30.29R
ALMA           CLEAR     47  32  56 SW7       30.22R
ANN ARBOR      SUNNY     41  37  86 CALM      30.28R
BAD AXE        SUNNY     45  34  65 S5        30.23R
CARO           SUNNY     40  37  91 CALM      30.22R
DETROIT CITY   SUNNY     48  41  76 SW7       30.28R
DETROIT        MOSUNNY   45  37  73 SW5       30.29R
FLINT          SUNNY     43  37  79 S5        30.25R
GROSSE ILE     MOSUNNY   49  39  67 CALM      30.28R
HILLSDALE      SUNNY     46  32  57 S7        30.27R
HOWELL         SUNNY     46  39  78 CALM      30.25R

CITY           SKY/WX    TMP DP  RH WIND       PRES   REMARKS
JACKSON        SUNNY     49  36  61 SE3       30.26R
LAMBERTVILLE   MOSUNNY   46  40  82 CALM      30.29R
LANSING        CLEAR     50  35  56 S5        30.24R
LAPEER         FAIR      39  39  98 CALM      30.25R
MASON          SUNNY     50  34  53 S6        30.25R
MONROE         MOSUNNY   46  33  61 CALM      30.28R
MT. CLEMENS    MOSUNNY   43  41  91 CALM      30.25R
PONTIAC        MOSUNNY   45  40  82 CALM      30.25R
PORT HOPE        N/A     52  32  46 SW7       30.19R
PORT HURON     SUNNY     41  39  93 CALM      30.27R
TRI CITIES     CLEAR     49  35  58 S7        30.22R
MIDLAND        FAIR      40  39  95 CALM      30.20S
TROY           SUNNY     48  35  61 SW7       30.29R
SAGINAW HB     SUNNY     46  36  66 S5        30.21S
$$
MIZ043>046-050>051-056>058-064>065-071>073-077>080-201400-
SOUTHWEST LOWER MICHIGAN

CITY           SKY/WX    TMP DP  RH WIND       PRES   REMARKS
BATTLE CREEK   CLEAR     51  40  65 S6        30.24R
BENTON HARBOR  CLEAR     52  44  74 SE5       30.21R
BIG RAPIDS     CLEAR     39  37  93 SE3       30.18R
COLDWATER      CLEAR     51  37  58 CALM      30.26R
FREMONT        FAIR      50  38  63 S5        30.18R
HOLLAND        CLEAR     51  42  71 S5        30.20S
GRAND RAPIDS   PTCLDY    52  40  63 S6        30.21R
IONIA          FAIR      51  34  51 S7        30.21S
KALAMAZOO      CLEAR     50  38  63 S6        30.24R
LUDINGTON      CLEAR     54  45  72 SE6       30.14R
MARSHALL       CLEAR     49  37  63 CALM      30.25R
MOUNT PLEASANT CLEAR     47  39  73 CALM      30.19S
MUSKEGON       PTCLDY    51  44  77 S3        30.18S
SOUTH HAVEN    CLEAR     53  44  71 S5        30.21R
$$
MIZ016>042-201400-
NORTHERN LOWER MICHIGAN

CITY           SKY/WX    TMP DP  RH WIND       PRES   REMARKS
ALPENA         CLEAR     45  40  82 S5        30.17R
BEAVER ISLAND  CLEAR     58  47  66 S8        30.08S
BELLAIRE       CLEAR     43  40  91 CALM      30.13S
CADILLAC       CLEAR     52  33  48 SW6       30.16R
CHARLEVOIX     CLEAR     57  37  47 S10       30.13S
FRANKFORT      CLEAR     60  46  61 SE6       30.11S
GAYLORD        CLEAR     54  37  52 SW9       30.14S
GRAYLING       CLEAR     37  32  81 CALM      30.17R
HARBOR SPRINGS CLEAR     57  34  41 CALM      30.11R
HOUGHTON LAKE  CLEAR     43  37  79 CALM      30.18S
MANISTEE       CLEAR     48  40  73 E5        30.13S
OSCODA         CLEAR     46  36  68 SW7       30.20R
PELLSTON       CLEAR     47  39  74 SE3       30.11S
ROGERS CITY    CLEAR     51  34  51 S10       30.14S
TRAVERSE CITY  PTCLDY    53  34  48 SE5       30.12R
$$
MIZ007>008-015-201400-
EASTERN UPPER MICHIGAN

CITY           SKY/WX    TMP DP  RH WIND       PRES   REMARKS
KINROSS        CLEAR     54  47  77 SW6       30.08S
MACKINAC ISLAN CLEAR     56  38  50 S10G16    30.09R
NEWBERRY       CLEAR     53  52  94 S15       30.04S
S. S. MARIE    CLEAR     44  42  93 E5        30.08R
MUNISING         N/A     53  41  63 SW12      30.00S
$$
MIZ004>006-011>014-085-201400-
CENTRAL UPPER MICHIGAN

CITY           SKY/WX    TMP DP  RH WIND       PRES   REMARKS
MANISTIQUE     CLEAR     55  46  73 S9        30.05S
ESCANABA       CLEAR     47  42  83 CALM      30.04S
MENOMINEE      CLEAR     46  42  86 CALM      30.06S
SAWYER-GWINN   CLEAR     43  36  75 S7        30.02S
$$
MIZ001>003-009>011-084-201400-
WESTERN UPPER MICHIGAN

CITY           SKY/WX    TMP DP  RH WIND       PRES   REMARKS
IRON MOUNTAIN  CLEAR     43  35  73 SE6       30.02S
HOUGHTON       CLEAR     53  41  63 S6        29.92S
COPPER HARBOR    N/A     55  40  56 SW9       29.91R
IRONWOOD       CLEAR     54  44  69 S13       29.92S
$$

ABBREVIATIONS USED IN REMARKS
   TC - TEMPERATURE IN CELSIUS
  WCI - WIND CHILL INDEX
   HX - HEAT INDEX
  VSB - VISIBILITY





USA.gov is the U.S. government's official web portal to all federal, state and local government web resources and services.